Time,TemperatureF,DewpointF,PressureIn,WindDirection,WindDirectionDegrees,WindSpeedMPH,WindSpeedGustMPH,Humidity,HourlyPrecipIn,Conditions,Clouds,dailyrainin,SolarRadiationWatts/m^2,SoftwareType,DateUTC
2013-03-08 00:00:00,39.1,37.2,30.17,NNE,31,0.0,0.0,93,0.00,CLR,,0.00,0.0,WeatherDisplay:10.37,2013-03-08 05:00:00,
2013-03-08 00:05:00,38.9,37.0,30.17,NNE,31,0.0,0.0,93,0.00,CLR,,0.00,0.0,WeatherDisplay:10.37,2013-03-08 05:05:00,
2013-03-08 00:10:00,38.9,37.3,30.17,NNE,31,0.0,0.0,94,0.00,CLR,,0.00,0.0,WeatherDisplay:10.37,2013-03-08 05:10:00,
2013-03-08 00:15:00,38.8,37.2,30.17,NNE,31,0.0,0.0,94,0.00,CLR,,0.00,0.0,WeatherDisplay:10.37,2013-03-08 05:15:00,
2013-03-08 00:20:00,38.7,37.1,30.17,NNE,31,0.0,0.0,94,0.00,CLR,,0.00,0.0,WeatherDisplay:10.37,2013-03-08 05:20:00,
2013-03-08 00:25:00,38.6,37.0,30.17,NNE,31,0.0,0.0,94,0.00,CLR,,0.00,0.0,WeatherDisplay:10.37,2013-03-08 05:25:00,
2013-03-08 00:30:00,38.6,37.0,30.17,NNE,31,0.0,0.0,94,0.00,CLR,,0.00,0.0,WeatherDisplay:10.37,2013-03-08 05:30:00,
2013-03-08 00:35:00,38.5,36.9,30.17,NNE,32,0.0,0.0,94,0.00,CLR,,0.00,0.0,WeatherDisplay:10.37,2013-03-08 05:35:00,
2013-03-08 00:40:00,38.4,36.8,30.17,NNE,31,0.0,0.0,94,0.00,CLR,,0.00,0.0,WeatherDisplay:10.37,2013-03-08 05:40:00,
2013-03-08 00:45:00,38.3,36.7,30.17,NNE,31,0.0,0.0,94,0.00,CLR,,0.00,0.0,WeatherDisplay:10.37,2013-03-08 05:45:00,
2013-03-08 00:50:00,38.3,37.0,30.17,NNE,31,0.0,0.0,95,0.00,CLR,,0.00,0.0,WeatherDisplay:10.37,2013-03-08 05:50:00,
2013-03-08 00:55:00,38.2,36.6,30.17,NNE,31,0.0,0.0,94,0.00,CLR,,0.00,0.0,WeatherDisplay:10.37,2013-03-08 05:55:00,
2013-03-08 01:00:00,38.1,36.8,30.17,NNE,31,0.0,0.0,95,0.00,CLR,,0.00,0.0,WeatherDisplay:10.37,2013-03-08 06:00:00,
2013-03-08 01:05:00,38.0,36.7,30.17,NNE,31,0.0,0.0,95,0.00,CLR,,0.00,0.0,WeatherDisplay:10.37,2013-03-08 06:05:00,
2013-03-08 01:10:00,38.0,36.7,30.17,NNE,31,0.0,0.0,95,0.00,CLR,,0.00,0.0,WeatherDisplay:10.37,2013-03-08 06:10:00,
2013-03-08 01:15:00,37.9,36.6,30.17,NNE,31,0.0,0.0,95,0.00,CLR,,0.00,0.0,WeatherDisplay:10.37,2013-03-08 06:15:00,
2013-03-08 01:20:00,37.9,36.6,30.17,NNE,31,0.0,0.0,95,0.00,CLR,,0.00,0.0,WeatherDisplay:10.37,2013-03-08 06:20:00,
2013-03-08 01:25:00,37.9,36.6,30.17,NNE,31,0.0,0.0,95,0.00,CLR,,0.00,0.0,WeatherDisplay:10.37,2013-03-08 06:25:00,
2013-03-08 01:30:00,37.7,36.4,30.18,NNE,31,0.0,0.0,95,0.00,CLR,,0.00,0.0,WeatherDisplay:10.37,2013-03-08 06:30:00,
2013-03-08 01:35:00,37.6,36.3,30.18,NNE,31,0.0,0.0,95,0.00,CLR,,0.00,0.0,WeatherDisplay:10.37,2013-03-08 06:35:00,
2013-03-08 01:40:00,37.6,36.3,30.18,NNE,30,1.2,1.2,95,0.00,CLR,,0.00,0.0,WeatherDisplay:10.37,2013-03-08 06:40:00,
2013-03-08 01:45:00,37.5,36.5,30.18,NNE,28,3.5,3.5,96,0.00,CLR,,0.00,0.0,WeatherDisplay:10.37,2013-03-08 06:45:00,
2013-03-08 01:50:00,37.7,36.7,30.18,North,9,3.5,3.5,96,0.00,CLR,,0.00,0.0,WeatherDisplay:10.37,2013-03-08 06:50:00,
2013-03-08 01:55:00,37.9,36.9,30.18,North,359,3.5,3.5,96,0.00,CLR,,0.00,0.0,WeatherDisplay:10.37,2013-03-08 06:55:00,
2013-03-08 02:00:00,38.0,37.0,30.18,North,354,3.5,3.5,96,0.00,CLR,,0.00,0.0,WeatherDisplay:10.37,2013-03-08 07:00:00,
2013-03-08 02:05:00,38.2,36.9,30.18,NNE,16,3.5,3.5,95,0.00,CLR,,0.00,0.0,WeatherDisplay:10.37,2013-03-08 07:05:00,
2013-03-08 02:10:00,38.7,37.1,30.18,North,10,3.5,3.5,94,0.00,CLR,,0.00,0.0,WeatherDisplay:10.37,2013-03-08 07:10:00,
2013-03-08 02:15:00,39.0,36.9,30.18,NE,35,3.5,3.5,92,0.00,CLR,,0.00,0.0,WeatherDisplay:10.37,2013-03-08 07:15:00,
2013-03-08 02:20:00,39.7,36.7,30.18,NNE,31,6.9,6.9,89,0.00,CLR,,0.00,0.0,WeatherDisplay:10.37,2013-03-08 07:20:00,
2013-03-08 02:25:00,40.4,36.2,30.18,NNW,339,3.5,3.5,85,0.00,CLR,,0.00,0.0,WeatherDisplay:10.37,2013-03-08 07:25:00,
2013-03-08 02:30:00,41.1,35.7,30.18,NNW,335,3.5,3.5,81,0.00,CLR,,0.00,0.0,WeatherDisplay:10.37,2013-03-08 07:30:00,
2013-03-08 02:35:00,41.8,35.4,30.18,NE,41,3.5,3.5,78,0.00,CLR,,0.00,0.0,WeatherDisplay:10.37,2013-03-08 07:35:00,
2013-03-08 02:40:00,42.1,35.7,30.18,NNW,344,3.5,3.5,78,0.00,CLR,,0.00,0.0,WeatherDisplay:10.37,2013-03-08 07:40:00,
2013-03-08 02:45:00,42.1,35.1,30.18,NNW,344,3.5,3.5,76,0.00,CLR,,0.00,0.0,WeatherDisplay:10.37,2013-03-08 07:45:00,
2013-03-08 02:50:00,42.2,34.8,30.18,North,4,9.2,9.2,75,0.00,CLR,,0.00,0.0,WeatherDisplay:10.37,2013-03-08 07:50:00,
2013-03-08 02:55:00,42.3,34.9,30.18,NE,52,3.5,3.5,75,0.00,CLR,,0.00,0.0,WeatherDisplay:10.37,2013-03-08 07:55:00,
2013-03-08 03:00:00,42.3,34.9,30.18,NNW,337,6.9,6.9,75,0.00,CLR,,0.00,0.0,WeatherDisplay:10.37,2013-03-08 08:00:00,
2013-03-08 03:05:00,42.3,34.6,30.18,North,8,5.0,5.0,74,0.00,CLR,,0.00,0.0,WeatherDisplay:10.37,2013-03-08 08:05:00,
2013-03-08 03:10:00,42.3,34.3,30.18,NNE,19,9.2,9.2,73,0.00,CLR,,0.00,0.0,WeatherDisplay:10.37,2013-03-08 08:10:00,
2013-03-08 03:15:00,42.4,34.7,30.18,North,359,5.8,5.8,74,0.00,CLR,,0.00,0.0,WeatherDisplay:10.37,2013-03-08 08:15:00,
2013-03-08 03:20:00,42.4,34.7,30.18,North,4,4.6,4.6,74,0.00,CLR,,0.00,0.0,WeatherDisplay:10.37,2013-03-08 08:20:00,
2013-03-08 03:25:00,42.3,34.6,30.18,NNW,332,5.0,5.0,74,0.00,CLR,,0.00,0.0,WeatherDisplay:10.37,2013-03-08 08:25:00,
2013-03-08 03:30:00,42.1,34.1,30.18,NNE,18,8.1,8.1,73,0.00,CLR,,0.00,0.0,WeatherDisplay:10.37,2013-03-08 08:30:00,
2013-03-08 03:35:00,42.0,33.6,30.19,NE,41,9.0,9.0,72,0.00,CLR,,0.00,0.0,WeatherDisplay:10.37,2013-03-08 08:35:00,
2013-03-08 03:40:00,42.0,33.6,30.19,North,4,3.5,3.5,72,0.00,CLR,,0.00,0.0,WeatherDisplay:10.37,2013-03-08 08:40:00,
2013-03-08 03:45:00,42.0,33.6,30.19,NE,43,5.8,5.8,72,0.00,CLR,,0.00,0.0,WeatherDisplay:10.37,2013-03-08 08:45:00,
2013-03-08 03:50:00,41.8,33.4,30.19,North,4,3.5,3.5,72,0.00,CLR,,0.00,0.0,WeatherDisplay:10.37,2013-03-08 08:50:00,
2013-03-08 03:55:00,41.6,33.6,30.19,NNW,337,5.8,5.8,73,0.00,CLR,,0.00,0.0,WeatherDisplay:10.37,2013-03-08 08:55:00,
2013-03-08 04:00:00,41.4,33.7,30.19,North,11,3.5,3.5,74,0.00,CLR,,0.00,0.0,WeatherDisplay:10.37,2013-03-08 09:00:00,
2013-03-08 04:05:00,41.3,34.0,30.19,NNW,346,3.5,3.5,75,0.00,CLR,,0.00,0.0,WeatherDisplay:10.37,2013-03-08 09:05:00,
2013-03-08 04:10:00,41.1,33.8,30.19,NNE,13,4.6,4.6,75,0.00,CLR,,0.00,0.0,WeatherDisplay:10.37,2013-03-08 09:10:00,
2013-03-08 04:15:00,41.1,33.4,30.20,NNW,337,10.4,10.4,74,0.00,CLR,,0.00,0.0,WeatherDisplay:10.37,2013-03-08 09:15:00,
2013-03-08 04:20:00,41.1,33.1,30.20,North,4,6.9,6.9,73,0.00,CLR,,0.00,0.0,WeatherDisplay:10.37,2013-03-08 09:20:00,
2013-03-08 04:25:00,41.1,33.1,30.20,North,349,2.3,2.3,73,0.00,CLR,,0.00,0.0,WeatherDisplay:10.37,2013-03-08 09:25:00,
2013-03-08 04:30:00,41.0,33.0,30.20,NNW,332,8.1,8.1,73,0.00,CLR,,0.00,0.0,WeatherDisplay:10.37,2013-03-08 09:30:00,
2013-03-08 04:35:00,40.9,32.9,30.20,North,359,5.8,5.8,73,0.00,CLR,,0.00,0.0,WeatherDisplay:10.37,2013-03-08 09:35:00,
2013-03-08 04:40:00,40.9,32.6,30.20,North,354,6.9,6.9,72,0.00,CLR,,0.00,0.0,WeatherDisplay:10.37,2013-03-08 09:40:00,
2013-03-08 04:45:00,40.9,32.6,30.21,NNE,24,3.5,3.5,72,0.00,CLR,,0.00,0.0,WeatherDisplay:10.37,2013-03-08 09:45:00,
2013-03-08 04:50:00,40.9,32.6,30.21,NNW,348,8.1,8.1,72,0.00,CLR,,0.00,0.0,WeatherDisplay:10.37,2013-03-08 09:50:00,
2013-03-08 04:55:00,40.9,32.2,30.21,North,4,6.9,6.9,71,0.00,CLR,,0.00,0.0,WeatherDisplay:10.37,2013-03-08 09:55:00,
2013-03-08 05:00:00,40.9,31.9,30.21,North,354,5.0,5.0,70,0.00,CLR,,0.00,0.0,WeatherDisplay:10.37,2013-03-08 10:00:00,
2013-03-08 05:05:00,40.9,31.5,30.21,NNW,332,4.6,4.6,69,0.00,CLR,,0.00,0.0,WeatherDisplay:10.37,2013-03-08 10:05:00,
2013-03-08 05:10:00,40.8,31.4,30.21,North,349,3.5,3.5,69,0.00,CLR,,0.00,0.0,WeatherDisplay:10.37,2013-03-08 10:10:00,
2013-03-08 05:15:00,40.7,31.7,30.22,NNW,347,3.0,3.0,70,0.00,CLR,,0.00,0.0,WeatherDisplay:10.37,2013-03-08 10:15:00,
2013-03-08 05:20:00,40.5,31.5,30.21,North,354,3.5,3.5,70,0.00,CLR,,0.00,0.0,WeatherDisplay:10.37,2013-03-08 10:20:00,
2013-03-08 05:25:00,40.4,31.4,30.21,North,359,3.5,3.5,70,0.00,CLR,,0.00,0.0,WeatherDisplay:10.37,2013-03-08 10:25:00,
2013-03-08 05:30:00,40.3,31.6,30.21,NNW,329,4.0,4.0,71,0.00,CLR,,0.00,0.0,WeatherDisplay:10.37,2013-03-08 10:30:00,
2013-03-08 05:35:00,40.1,31.4,30.21,NNW,339,4.6,4.6,71,0.00,CLR,,0.00,0.0,WeatherDisplay:10.37,2013-03-08 10:35:00,
2013-03-08 05:40:00,40.0,31.0,30.22,NNW,340,8.1,8.1,70,0.00,CLR,,0.00,0.0,WeatherDisplay:10.37,2013-03-08 10:40:00,
2013-03-08 05:45:00,40.0,31.0,30.22,North,8,4.6,4.6,70,0.00,CLR,,0.00,0.0,WeatherDisplay:10.37,2013-03-08 10:45:00,
2013-03-08 05:50:00,40.0,31.4,30.22,North,4,3.5,3.5,71,0.00,CLR,,0.00,0.0,WeatherDisplay:10.37,2013-03-08 10:50:00,
2013-03-08 05:55:00,40.0,31.0,30.22,North,359,5.8,5.8,70,0.00,CLR,,0.00,0.0,WeatherDisplay:10.37,2013-03-08 10:55:00,
2013-03-08 06:00:00,40.0,30.6,30.22,North,359,6.9,6.9,69,0.00,CLR,,0.00,0.0,WeatherDisplay:10.37,2013-03-08 11:00:00,
2013-03-08 06:05:00,40.1,30.7,30.22,North,359,6.9,6.9,69,0.00,CLR,,0.00,0.0,WeatherDisplay:10.37,2013-03-08 11:05:00,
2013-03-08 06:10:00,40.1,30.7,30.22,NNE,29,5.8,5.8,69,0.00,CLR,,0.00,0.0,WeatherDisplay:10.37,2013-03-08 11:10:00,
2013-03-08 06:15:00,39.9,30.5,30.22,NNW,338,3.0,3.0,69,0.00,CLR,,0.00,0.0,WeatherDisplay:10.37,2013-03-08 11:15:00,
2013-03-08 06:20:00,39.7,30.7,30.22,NW,320,5.0,5.0,70,0.00,CLR,,0.00,0.0,WeatherDisplay:10.37,2013-03-08 11:20:00,
2013-03-08 06:25:00,39.5,30.5,30.22,NE,34,4.6,4.6,70,0.00,CLR,,0.00,0.0,WeatherDisplay:10.37,2013-03-08 11:25:00,
2013-03-08 06:30:00,39.3,30.3,30.22,North,4,4.6,4.6,70,0.00,CLR,,0.00,0.0,WeatherDisplay:10.37,2013-03-08 11:30:00,
2013-03-08 06:35:00,39.2,30.6,30.23,NNW,343,3.5,3.5,71,0.00,CLR,,0.00,0.0,WeatherDisplay:10.37,2013-03-08 11:35:00,
2013-03-08 06:40:00,39.0,30.4,30.23,NNW,344,4.6,4.6,71,0.00,CLR,,0.00,0.0,WeatherDisplay:10.37,2013-03-08 11:40:00,
2013-03-08 06:45:00,38.8,30.5,30.23,North,350,3.5,3.5,72,0.00,CLR,,0.00,0.0,WeatherDisplay:10.37,2013-03-08 11:45:00,
2013-03-08 06:50:00,38.8,30.5,30.23,North,9,5.8,5.8,72,0.00,CLR,,0.00,0.0,WeatherDisplay:10.37,2013-03-08 11:50:00,
2013-03-08 06:55:00,38.7,30.4,30.23,NNE,12,4.6,4.6,72,0.00,CLR,,0.00,0.0,WeatherDisplay:10.37,2013-03-08 11:55:00,
2013-03-08 07:00:00,38.8,30.5,30.23,North,354,6.9,6.9,72,0.00,CLR,,0.00,0.0,WeatherDisplay:10.37,2013-03-08 12:00:00,
2013-03-08 07:05:00,38.9,30.6,30.23,NNW,347,9.2,9.2,72,0.00,CLR,,0.00,0.0,WeatherDisplay:10.37,2013-03-08 12:05:00,
2013-03-08 07:10:00,39.2,30.6,30.23,North,354,3.5,3.5,71,0.00,CLR,,0.00,0.0,WeatherDisplay:10.37,2013-03-08 12:10:00,
2013-03-08 07:15:00,39.3,30.7,30.23,NNW,343,9.2,9.2,71,0.00,CLR,,0.00,0.0,WeatherDisplay:10.37,2013-03-08 12:15:00,
2013-03-08 07:20:00,39.5,30.9,30.23,North,354,11.0,11.0,71,0.00,CLR,,0.00,0.0,WeatherDisplay:10.37,2013-03-08 12:20:00,
2013-03-08 07:25:00,39.8,30.8,30.24,North,10,8.1,8.1,70,0.00,CLR,,0.00,0.0,WeatherDisplay:10.37,2013-03-08 12:25:00,
2013-03-08 07:30:00,40.0,31.0,30.24,NNW,335,5.8,5.8,70,0.00,CLR,,0.00,0.0,WeatherDisplay:10.37,2013-03-08 12:30:00,
2013-03-08 07:35:00,40.2,30.5,30.24,North,354,10.4,10.4,68,0.00,CLR,,0.00,0.0,WeatherDisplay:10.37,2013-03-08 12:35:00,
2013-03-08 07:40:00,40.4,31.0,30.24,NNW,343,10.4,10.4,69,0.00,CLR,,0.00,0.0,WeatherDisplay:10.37,2013-03-08 12:40:00,
2013-03-08 07:45:00,40.6,30.9,30.25,North,354,9.2,9.2,68,0.00,CLR,,0.00,0.0,WeatherDisplay:10.37,2013-03-08 12:45:00,
2013-03-08 07:50:00,40.8,30.7,30.25,North,8,10.4,10.4,67,0.00,CLR,,0.00,0.0,WeatherDisplay:10.37,2013-03-08 12:50:00,
2013-03-08 07:55:00,41.0,30.9,30.25,North,8,6.9,6.9,67,0.00,CLR,,0.00,0.0,WeatherDisplay:10.37,2013-03-08 12:55:00,
2013-03-08 08:00:00,41.3,31.2,30.25,NNE,14,4.6,4.6,67,0.00,CLR,,0.00,0.0,WeatherDisplay:10.37,2013-03-08 13:00:00,
2013-03-08 08:05:00,41.8,30.9,30.25,NNW,328,11.5,11.5,65,0.00,CLR,,0.00,0.0,WeatherDisplay:10.37,2013-03-08 13:05:00,
2013-03-08 08:10:00,42.2,31.3,30.25,North,359,6.9,6.9,65,0.00,CLR,,0.00,0.0,WeatherDisplay:10.37,2013-03-08 13:10:00,
2013-03-08 08:15:00,42.7,31.4,30.25,NW,325,11.5,11.5,64,0.00,CLR,,0.00,0.0,WeatherDisplay:10.37,2013-03-08 13:15:00,
2013-03-08 08:20:00,43.0,31.3,30.26,North,4,9.2,9.2,63,0.00,CLR,,0.00,0.0,WeatherDisplay:10.37,2013-03-08 13:20:00,
2013-03-08 08:25:00,43.4,31.6,30.26,North,349,13.8,13.8,63,0.00,CLR,,0.00,0.0,WeatherDisplay:10.37,2013-03-08 13:25:00,
2013-03-08 08:30:00,43.3,31.1,30.26,NNW,339,9.2,9.2,62,0.00,CLR,,0.00,0.0,WeatherDisplay:10.37,2013-03-08 13:30:00,
2013-03-08 08:35:00,43.2,31.1,30.26,NNW,334,6.9,6.9,62,0.00,CLR,,0.00,0.0,WeatherDisplay:10.37,2013-03-08 13:35:00,
2013-03-08 08:40:00,43.4,31.2,30.26,NW,321,12.7,12.7,62,0.00,CLR,,0.00,0.0,WeatherDisplay:10.37,2013-03-08 13:40:00,
2013-03-08 08:45:00,43.5,31.3,30.26,North,8,9.0,9.0,62,0.00,CLR,,0.00,0.0,WeatherDisplay:10.37,2013-03-08 13:45:00,
2013-03-08 08:50:00,43.7,31.5,30.26,NNW,340,11.5,11.5,62,0.00,CLR,,0.00,0.0,WeatherDisplay:10.37,2013-03-08 13:50:00,
2013-03-08 08:55:00,43.9,31.3,30.26,NNE,20,10.4,10.4,61,0.00,CLR,,0.00,0.0,WeatherDisplay:10.37,2013-03-08 13:55:00,
2013-03-08 09:00:00,44.1,31.5,30.26,North,359,6.9,6.9,61,0.00,CLR,,0.00,0.0,WeatherDisplay:10.37,2013-03-08 14:00:00,
2013-03-08 09:05:00,44.3,30.9,30.26,NNW,343,8.1,8.1,59,0.00,CLR,,0.00,0.0,WeatherDisplay:10.37,2013-03-08 14:05:00,
2013-03-08 09:10:00,44.6,32.0,30.26,North,354,5.8,5.8,61,0.00,CLR,,0.00,0.0,WeatherDisplay:10.37,2013-03-08 14:10:00,
2013-03-08 09:15:00,45.1,31.6,30.26,NNE,12,9.2,9.2,59,0.00,CLR,,0.00,0.0,WeatherDisplay:10.37,2013-03-08 14:15:00,
2013-03-08 09:20:00,45.4,31.9,30.26,NE,51,6.9,6.9,59,0.00,CLR,,0.00,0.0,WeatherDisplay:10.37,2013-03-08 14:20:00,
2013-03-08 09:25:00,45.8,31.9,30.26,NNW,338,10.4,10.4,58,0.00,CLR,,0.00,0.0,WeatherDisplay:10.37,2013-03-08 14:25:00,
2013-03-08 09:30:00,46.5,32.5,30.26,North,354,7.0,7.0,58,0.00,CLR,,0.00,0.0,WeatherDisplay:10.37,2013-03-08 14:30:00,
2013-03-08 09:35:00,46.6,32.2,30.26,NNW,341,4.6,4.6,57,0.00,CLR,,0.00,0.0,WeatherDisplay:10.37,2013-03-08 14:35:00,
2013-03-08 09:40:00,47.0,31.7,30.26,North,4,6.9,6.9,55,0.00,CLR,,0.00,0.0,WeatherDisplay:10.37,2013-03-08 14:40:00,
2013-03-08 09:45:00,47.4,31.6,30.26,NW,322,11.5,11.5,54,0.00,CLR,,0.00,0.0,WeatherDisplay:10.37,2013-03-08 14:45:00,
2013-03-08 09:50:00,47.8,31.5,30.26,NNW,341,8.1,8.1,53,0.00,CLR,,0.00,0.0,WeatherDisplay:10.37,2013-03-08 14:50:00,
2013-03-08 09:55:00,47.9,32.0,30.26,NNE,13,6.9,6.9,54,0.00,CLR,,0.00,0.0,WeatherDisplay:10.37,2013-03-08 14:55:00,
2013-03-08 10:00:00,48.4,31.1,30.26,North,11,11.5,11.5,51,0.00,CLR,,0.00,0.0,WeatherDisplay:10.37,2013-03-08 15:00:00,
2013-03-08 10:05:00,48.4,30.6,30.26,North,350,9.2,9.2,50,0.00,CLR,,0.00,0.0,WeatherDisplay:10.37,2013-03-08 15:05:00,
2013-03-08 10:10:00,48.6,31.3,30.26,NNE,13,6.9,6.9,51,0.00,CLR,,0.00,0.0,WeatherDisplay:10.37,2013-03-08 15:10:00,
2013-03-08 10:15:00,49.1,31.2,30.25,NNW,338,11.5,11.5,50,0.00,CLR,,0.00,0.0,WeatherDisplay:10.37,2013-03-08 15:15:00,
2013-03-08 10:20:00,49.5,30.1,30.25,NNW,337,9.2,9.2,47,0.00,CLR,,0.00,0.0,WeatherDisplay:10.37,2013-03-08 15:20:00,
2013-03-08 10:25:00,49.8,29.8,30.25,NNE,23,10.4,10.4,46,0.00,CLR,,0.00,0.0,WeatherDisplay:10.37,2013-03-08 15:25:00,
2013-03-08 10:30:00,49.9,30.5,30.25,East,82,10.4,10.4,47,0.00,CLR,,0.00,0.0,WeatherDisplay:10.37,2013-03-08 15:30:00,
2013-03-08 10:35:00,50.4,29.8,30.25,North,8,9.2,9.2,45,0.00,CLR,,0.00,0.0,WeatherDisplay:10.37,2013-03-08 15:35:00,
2013-03-08 10:40:00,50.7,30.1,30.25,NNE,12,9.2,9.2,45,0.00,CLR,,0.00,0.0,WeatherDisplay:10.37,2013-03-08 15:40:00,
2013-03-08 10:45:00,50.9,29.7,30.25,NNW,337,11.5,11.5,44,0.00,CLR,,0.00,0.0,WeatherDisplay:10.37,2013-03-08 15:45:00,
2013-03-08 10:50:00,51.2,30.6,30.24,NNW,332,9.2,9.2,45,0.00,CLR,,0.00,0.0,WeatherDisplay:10.37,2013-03-08 15:50:00,
2013-03-08 10:55:00,50.9,30.3,30.24,NNW,329,11.5,11.5,45,0.00,CLR,,0.00,0.0,WeatherDisplay:10.37,2013-03-08 15:55:00,
2013-03-08 11:00:00,51.0,29.8,30.24,East,81,4.6,4.6,44,0.00,CLR,,0.00,0.0,WeatherDisplay:10.37,2013-03-08 16:00:00,
2013-03-08 11:05:00,51.5,30.3,30.24,ENE,68,9.2,9.2,44,0.00,CLR,,0.00,0.0,WeatherDisplay:10.37,2013-03-08 16:05:00,
2013-03-08 11:10:00,51.8,30.6,30.24,ENE,63,11.5,11.5,44,0.00,CLR,,0.00,0.0,WeatherDisplay:10.37,2013-03-08 16:10:00,
2013-03-08 11:15:00,52.2,30.4,30.24,NNE,13,9.2,9.2,43,0.00,CLR,,0.00,0.0,WeatherDisplay:10.37,2013-03-08 16:15:00,
2013-03-08 11:20:00,52.2,30.9,30.24,North,354,9.2,9.2,44,0.00,CLR,,0.00,0.0,WeatherDisplay:10.37,2013-03-08 16:20:00,
2013-03-08 11:25:00,52.8,31.5,30.23,NNE,22,5.8,5.8,44,0.00,CLR,,0.00,0.0,WeatherDisplay:10.37,2013-03-08 16:25:00,
2013-03-08 11:30:00,53.0,30.5,30.23,NE,53,6.9,6.9,42,0.00,CLR,,0.00,0.0,WeatherDisplay:10.37,2013-03-08 16:30:00,
2013-03-08 11:35:00,53.2,31.8,30.24,NE,52,4.6,4.6,44,0.00,CLR,,0.00,0.0,WeatherDisplay:10.37,2013-03-08 16:35:00,
2013-03-08 11:40:00,53.6,31.0,30.23,East,87,3.5,3.5,42,0.00,CLR,,0.00,0.0,WeatherDisplay:10.37,2013-03-08 16:40:00,
2013-03-08 11:45:00,54.0,30.2,30.23,NW,315,4.6,4.6,40,0.00,CLR,,0.00,0.0,WeatherDisplay:10.37,2013-03-08 16:45:00,
2013-03-08 11:50:00,54.6,30.1,30.23,SE,129,4.6,4.6,39,0.00,CLR,,0.00,0.0,WeatherDisplay:10.37,2013-03-08 16:50:00,
2013-03-08 11:55:00,55.2,28.7,30.23,NNW,332,5.8,5.8,36,0.00,CLR,,0.00,0.0,WeatherDisplay:10.37,2013-03-08 16:55:00,
2013-03-08 12:00:00,55.6,30.4,30.23,North,354,4.6,4.6,38,0.00,CLR,,0.00,0.0,WeatherDisplay:10.37,2013-03-08 17:00:00,
2013-03-08 12:05:00,55.9,30.0,30.23,SW,236,3.5,3.5,37,0.00,CLR,,0.00,0.0,WeatherDisplay:10.37,2013-03-08 17:05:00,
2013-03-08 12:10:00,56.1,30.2,30.22,North,4,3.5,3.5,37,0.00,CLR,,0.00,0.0,WeatherDisplay:10.37,2013-03-08 17:10:00,
2013-03-08 12:15:00,56.4,29.7,30.23,NNW,345,11.5,11.5,36,0.00,CLR,,0.00,0.0,WeatherDisplay:10.37,2013-03-08 17:15:00,
2013-03-08 12:20:00,56.3,29.0,30.22,NNW,347,5.8,5.8,35,0.00,CLR,,0.00,0.0,WeatherDisplay:10.37,2013-03-08 17:20:00,
2013-03-08 12:25:00,56.4,30.4,30.22,NNW,341,4.0,4.0,37,0.00,CLR,,0.00,0.0,WeatherDisplay:10.37,2013-03-08 17:25:00,
2013-03-08 12:30:00,56.9,30.2,30.21,NW,323,3.5,3.5,36,0.00,CLR,,0.00,0.0,WeatherDisplay:10.37,2013-03-08 17:30:00,
2013-03-08 12:35:00,57.1,27.5,30.21,NW,325,6.9,6.9,32,0.00,CLR,,0.00,0.0,WeatherDisplay:10.37,2013-03-08 17:35:00,
2013-03-08 12:40:00,57.7,28.8,30.21,West,262,3.5,3.5,33,0.00,CLR,,0.00,0.0,WeatherDisplay:10.37,2013-03-08 17:40:00,
2013-03-08 12:45:00,58.2,26.1,30.21,NNW,330,13.8,13.8,29,0.00,CLR,,0.00,0.0,WeatherDisplay:10.37,2013-03-08 17:45:00,
2013-03-08 12:50:00,57.6,25.5,30.20,North,354,6.9,6.9,29,0.00,CLR,,0.00,0.0,WeatherDisplay:10.37,2013-03-08 17:50:00,
2013-03-08 12:55:00,57.1,26.7,30.20,ESE,119,9.2,9.2,31,0.00,CLR,,0.00,0.0,WeatherDisplay:10.37,2013-03-08 17:55:00,
2013-03-08 13:00:00,57.4,26.2,30.20,NNW,339,10.4,10.4,30,0.00,CLR,,0.00,0.0,WeatherDisplay:10.37,2013-03-08 18:00:00,
2013-03-08 13:05:00,57.7,28.0,30.19,North,354,6.9,6.9,32,0.00,CLR,,0.00,0.0,WeatherDisplay:10.37,2013-03-08 18:05:00,
2013-03-08 13:10:00,57.7,28.0,30.19,West,269,3.5,3.5,32,0.00,CLR,,0.00,0.0,WeatherDisplay:10.37,2013-03-08 18:10:00,
2013-03-08 13:15:00,57.7,27.2,30.18,WNW,288,5.8,5.8,31,0.00,CLR,,0.00,0.0,WeatherDisplay:10.37,2013-03-08 18:15:00,
2013-03-08 13:20:00,57.9,28.2,30.18,SE,134,4.6,4.6,32,0.00,CLR,,0.00,0.0,WeatherDisplay:10.37,2013-03-08 18:20:00,
2013-03-08 13:25:00,58.6,28.8,30.18,NW,322,5.8,5.8,32,0.00,CLR,,0.00,0.0,WeatherDisplay:10.37,2013-03-08 18:25:00,
2013-03-08 13:30:00,59.5,27.2,30.18,NE,34,6.0,6.0,29,0.00,CLR,,0.00,0.0,WeatherDisplay:10.37,2013-03-08 18:30:00,
2013-03-08 13:35:00,59.7,26.5,30.18,NNW,331,6.9,6.9,28,0.00,CLR,,0.00,0.0,WeatherDisplay:10.37,2013-03-08 18:35:00,
2013-03-08 13:40:00,60.0,26.8,30.18,NNW,345,5.8,5.8,28,0.00,CLR,,0.00,0.0,WeatherDisplay:10.37,2013-03-08 18:40:00,
2013-03-08 13:45:00,60.1,27.7,30.17,NNW,337,9.2,9.2,29,0.00,CLR,,0.00,0.0,WeatherDisplay:10.37,2013-03-08 18:45:00,
2013-03-08 13:50:00,60.5,28.1,30.17,NW,323,5.8,5.8,29,0.00,CLR,,0.00,0.0,WeatherDisplay:10.37,2013-03-08 18:50:00,
2013-03-08 13:55:00,60.5,27.2,30.17,WNW,292,5.8,5.8,28,0.00,CLR,,0.00,0.0,WeatherDisplay:10.37,2013-03-08 18:55:00,
2013-03-08 14:00:00,60.8,26.6,30.17,NW,323,11.5,11.5,27,0.00,CLR,,0.00,0.0,WeatherDisplay:10.37,2013-03-08 19:00:00,
2013-03-08 14:05:00,60.4,27.1,30.17,NW,308,9.2,9.2,28,0.00,CLR,,0.00,0.0,WeatherDisplay:10.37,2013-03-08 19:05:00,
2013-03-08 14:10:00,60.5,28.1,30.18,West,280,5.8,5.8,29,0.00,CLR,,0.00,0.0,WeatherDisplay:10.37,2013-03-08 19:10:00,
2013-03-08 14:15:00,61.1,27.7,30.17,WSW,241,8.1,8.1,28,0.00,CLR,,0.00,0.0,WeatherDisplay:10.37,2013-03-08 19:15:00,
2013-03-08 14:20:00,61.6,29.0,30.17,North,350,3.5,3.5,29,0.00,CLR,,0.00,0.0,WeatherDisplay:10.37,2013-03-08 19:20:00,
2013-03-08 14:25:00,61.5,27.2,30.17,NNW,329,9.2,9.2,27,0.00,CLR,,0.00,0.0,WeatherDisplay:10.37,2013-03-08 19:25:00,
2013-03-08 14:30:00,61.4,28.0,30.17,WSW,240,3.5,3.5,28,0.00,CLR,,0.00,0.0,WeatherDisplay:10.37,2013-03-08 19:30:00,
2013-03-08 14:35:00,61.6,28.1,30.17,NNW,331,5.8,5.8,28,0.00,CLR,,0.00,0.0,WeatherDisplay:10.37,2013-03-08 19:35:00,
2013-03-08 14:40:00,62.0,29.3,30.17,WNW,296,3.5,3.5,29,0.00,CLR,,0.00,0.0,WeatherDisplay:10.37,2013-03-08 19:40:00,
2013-03-08 14:45:00,62.0,25.7,30.16,WNW,286,3.5,3.5,25,0.00,CLR,,0.00,0.0,WeatherDisplay:10.37,2013-03-08 19:45:00,
2013-03-08 14:50:00,61.8,29.2,30.16,SW,235,4.6,4.6,29,0.00,CLR,,0.00,0.0,WeatherDisplay:10.37,2013-03-08 19:50:00,
2013-03-08 14:55:00,61.6,29.0,30.16,North,8,3.5,3.5,29,0.00,CLR,,0.00,0.0,WeatherDisplay:10.37,2013-03-08 19:55:00,
2013-03-08 15:00:00,61.0,25.8,30.15,NW,314,3.5,3.5,26,0.00,CLR,,0.00,0.0,WeatherDisplay:10.37,2013-03-08 20:00:00,
2013-03-08 15:05:00,60.5,27.2,30.15,NNW,345,8.1,8.1,28,0.00,CLR,,0.00,0.0,WeatherDisplay:10.37,2013-03-08 20:05:00,
2013-03-08 15:10:00,60.0,26.8,30.15,ENE,60,3.5,3.5,28,0.00,CLR,,0.00,0.0,WeatherDisplay:10.37,2013-03-08 20:10:00,
2013-03-08 15:15:00,59.8,26.6,30.15,West,274,2.3,2.3,28,0.00,CLR,,0.00,0.0,WeatherDisplay:10.37,2013-03-08 20:15:00,
2013-03-08 15:20:00,59.7,26.5,30.15,NW,310,6.9,6.9,28,0.00,CLR,,0.00,0.0,WeatherDisplay:10.37,2013-03-08 20:20:00,
2013-03-08 15:25:00,59.6,26.4,30.15,NNW,329,6.9,6.9,28,0.00,CLR,,0.00,0.0,WeatherDisplay:10.37,2013-03-08 20:25:00,
2013-03-08 15:30:00,59.5,26.3,30.15,NNE,18,5.0,5.0,28,0.00,CLR,,0.00,0.0,WeatherDisplay:10.37,2013-03-08 20:30:00,
2013-03-08 15:35:00,59.5,25.5,30.15,East,83,8.1,8.1,27,0.00,CLR,,0.00,0.0,WeatherDisplay:10.37,2013-03-08 20:35:00,
2013-03-08 15:40:00,59.3,26.2,30.15,North,354,8.0,8.0,28,0.00,CLR,,0.00,0.0,WeatherDisplay:10.37,2013-03-08 20:40:00,
2013-03-08 15:45:00,59.1,26.0,30.15,NE,35,9.2,9.2,28,0.00,CLR,,0.00,0.0,WeatherDisplay:10.37,2013-03-08 20:45:00,
2013-03-08 15:50:00,59.1,26.8,30.14,North,359,4.6,4.6,29,0.00,CLR,,0.00,0.0,WeatherDisplay:10.37,2013-03-08 20:50:00,
2013-03-08 15:55:00,59.2,27.7,30.14,SW,214,3.5,3.5,30,0.00,CLR,,0.00,0.0,WeatherDisplay:10.37,2013-03-08 20:55:00,
2013-03-08 16:00:00,59.2,26.9,30.14,WSW,243,6.9,6.9,29,0.00,CLR,,0.00,0.0,WeatherDisplay:10.37,2013-03-08 21:00:00,
2013-03-08 16:05:00,58.9,26.7,30.14,NNW,333,7.0,7.0,29,0.00,CLR,,0.00,0.0,WeatherDisplay:10.37,2013-03-08 21:05:00,
2013-03-08 16:10:00,58.9,26.7,30.14,ENE,59,5.8,5.8,29,0.00,CLR,,0.00,0.0,WeatherDisplay:10.37,2013-03-08 21:10:00,
2013-03-08 16:15:00,58.9,27.5,30.14,NW,320,3.5,3.5,30,0.00,CLR,,0.00,0.0,WeatherDisplay:10.37,2013-03-08 21:15:00,
2013-03-08 16:20:00,59.0,25.9,30.14,NNW,339,6.9,6.9,28,0.00,CLR,,0.00,0.0,WeatherDisplay:10.37,2013-03-08 21:20:00,
2013-03-08 16:25:00,59.0,25.0,30.14,WNW,284,4.6,4.6,27,0.00,CLR,,0.00,0.0,WeatherDisplay:10.37,2013-03-08 21:25:00,
2013-03-08 16:30:00,59.0,25.0,30.14,NNW,330,9.2,9.2,27,0.00,CLR,,0.00,0.0,WeatherDisplay:10.37,2013-03-08 21:30:00,
2013-03-08 16:36:00,58.9,24.9,30.14,NNW,345,6.9,6.9,27,0.00,CLR,,0.00,0.0,WeatherDisplay:10.37,2013-03-08 21:36:00,
2013-03-08 16:41:00,58.8,24.9,30.14,West,270,3.5,3.5,27,0.00,CLR,,0.00,0.0,WeatherDisplay:10.37,2013-03-08 21:41:00,
2013-03-08 16:46:00,58.7,24.8,30.14,North,4,10.4,10.4,27,0.00,CLR,,0.00,0.0,WeatherDisplay:10.37,2013-03-08 21:46:00,
2013-03-08 16:51:00,58.7,24.8,30.14,NNW,335,10.4,10.4,27,0.00,CLR,,0.00,0.0,WeatherDisplay:10.37,2013-03-08 21:51:00,
2013-03-08 16:56:00,58.9,24.9,30.14,NNW,339,6.9,6.9,27,0.00,CLR,,0.00,0.0,WeatherDisplay:10.37,2013-03-08 21:56:00,
2013-03-08 17:01:00,59.0,25.0,30.14,NNW,343,5.8,5.8,27,0.00,CLR,,0.00,0.0,WeatherDisplay:10.37,2013-03-08 22:01:00,
2013-03-08 17:06:00,59.0,25.9,30.14,North,349,3.5,3.5,28,0.00,CLR,,0.00,0.0,WeatherDisplay:10.37,2013-03-08 22:06:00,
2013-03-08 17:11:00,59.0,25.0,30.14,NNW,330,6.9,6.9,27,0.00,CLR,,0.00,0.0,WeatherDisplay:10.37,2013-03-08 22:11:00,
2013-03-08 17:16:00,59.0,25.9,30.13,NE,54,2.3,2.3,28,0.00,CLR,,0.00,0.0,WeatherDisplay:10.37,2013-03-08 22:16:00,
2013-03-08 17:21:00,58.7,24.8,30.14,NNW,327,6.9,6.9,27,0.00,CLR,,0.00,0.0,WeatherDisplay:10.37,2013-03-08 22:21:00,
2013-03-08 17:26:00,58.4,25.4,30.14,WNW,302,4.6,4.6,28,0.00,CLR,,0.00,0.0,WeatherDisplay:10.37,2013-03-08 22:26:00,
2013-03-08 17:31:00,58.1,25.1,30.14,NNW,346,6.9,6.9,28,0.00,CLR,,0.00,0.0,WeatherDisplay:10.37,2013-03-08 22:31:00,
2013-03-08 17:36:00,58.0,25.0,30.14,NNE,32,6.9,6.9,28,0.00,CLR,,0.00,0.0,WeatherDisplay:10.37,2013-03-08 22:36:00,
2013-03-08 17:41:00,57.8,24.9,30.14,NW,312,3.5,3.5,28,0.00,CLR,,0.00,0.0,WeatherDisplay:10.37,2013-03-08 22:41:00,
2013-03-08 17:46:00,57.5,25.5,30.14,North,359,8.0,8.0,29,0.00,CLR,,0.00,0.0,WeatherDisplay:10.37,2013-03-08 22:46:00,
2013-03-08 17:51:00,57.4,24.5,30.14,NNW,340,5.8,5.8,28,0.00,CLR,,0.00,0.0,WeatherDisplay:10.37,2013-03-08 22:51:00,
2013-03-08 17:56:00,57.2,25.2,30.14,North,354,3.0,3.0,29,0.00,CLR,,0.00,0.0,WeatherDisplay:10.37,2013-03-08 22:56:00,
2013-03-08 18:01:00,56.8,25.7,30.15,North,359,4.6,4.6,30,0.00,CLR,,0.00,0.0,WeatherDisplay:10.37,2013-03-08 23:01:00,
2013-03-08 18:06:00,56.6,26.3,30.15,NNW,336,3.5,3.5,31,0.00,CLR,,0.00,0.0,WeatherDisplay:10.37,2013-03-08 23:06:00,
2013-03-08 18:11:00,56.1,25.8,30.15,NW,310,4.6,4.6,31,0.00,CLR,,0.00,0.0,WeatherDisplay:10.37,2013-03-08 23:11:00,
2013-03-08 18:16:00,55.9,26.4,30.15,North,354,3.5,3.5,32,0.00,CLR,,0.00,0.0,WeatherDisplay:10.37,2013-03-08 23:16:00,
2013-03-08 18:21:00,55.7,27.0,30.15,NNE,18,3.0,3.0,33,0.00,CLR,,0.00,0.0,WeatherDisplay:10.37,2013-03-08 23:21:00,
2013-03-08 18:26:00,55.4,26.0,30.15,North,349,3.5,3.5,32,0.00,CLR,,0.00,0.0,WeatherDisplay:10.37,2013-03-08 23:26:00,
2013-03-08 18:31:00,55.1,25.7,30.16,North,359,3.5,3.5,32,0.00,CLR,,0.00,0.0,WeatherDisplay:10.37,2013-03-08 23:31:00,
2013-03-08 18:36:00,55.0,27.1,30.16,North,359,1.2,1.2,34,0.00,CLR,,0.00,0.0,WeatherDisplay:10.37,2013-03-08 23:36:00,
2013-03-08 18:41:00,54.4,26.6,30.17,NW,312,3.5,3.5,34,0.00,CLR,,0.00,0.0,WeatherDisplay:10.37,2013-03-08 23:41:00,
2013-03-08 18:46:00,53.7,26.0,30.17,NNW,330,3.5,3.5,34,0.00,CLR,,0.00,0.0,WeatherDisplay:10.37,2013-03-08 23:46:00,
2013-03-08 18:51:00,53.1,27.5,30.17,NNW,335,2.3,2.3,37,0.00,CLR,,0.00,0.0,WeatherDisplay:10.37,2013-03-08 23:51:00,
2013-03-08 18:56:00,52.7,26.5,30.18,NNW,346,2.3,2.3,36,0.00,CLR,,0.00,0.0,WeatherDisplay:10.37,2013-03-08 23:56:00,
2013-03-08 19:01:00,52.4,26.9,30.17,NNW,346,1.2,1.2,37,0.00,CLR,,0.00,0.0,WeatherDisplay:10.37,2013-03-09 00:01:00,
2013-03-08 19:06:00,52.0,27.1,30.18,NNW,346,1.2,1.2,38,0.00,CLR,,0.00,0.0,WeatherDisplay:10.37,2013-03-09 00:06:00,
2013-03-08 19:11:00,51.5,28.6,30.18,NNW,346,1.2,1.2,41,0.00,CLR,,0.00,0.0,WeatherDisplay:10.37,2013-03-09 00:11:00,
2013-03-08 19:16:00,50.8,27.3,30.18,NNW,336,2.3,2.3,40,0.00,CLR,,0.00,0.0,WeatherDisplay:10.37,2013-03-09 00:16:00,
2013-03-08 19:21:00,50.4,28.7,30.19,North,359,2.3,2.3,43,0.00,CLR,,0.00,0.0,WeatherDisplay:10.37,2013-03-09 00:21:00,
2013-03-08 19:26:00,50.0,29.5,30.19,North,359,0.0,0.0,45,0.00,CLR,,0.00,0.0,WeatherDisplay:10.37,2013-03-09 00:26:00,
2013-03-08 19:31:00,49.5,29.6,30.19,North,359,1.2,0.0,46,0.00,CLR,,0.00,0.0,WeatherDisplay:10.37,2013-03-09 00:31:00,
2013-03-08 19:36:00,49.1,29.2,30.19,North,359,1.2,0.0,46,0.00,CLR,,0.00,0.0,WeatherDisplay:10.37,2013-03-09 00:36:00,
2013-03-08 19:41:00,48.7,29.4,30.19,North,359,0.0,0.0,47,0.00,CLR,,0.00,0.0,WeatherDisplay:10.37,2013-03-09 00:41:00,
2013-03-08 19:46:00,48.3,28.5,30.19,North,359,0.0,0.0,46,0.00,CLR,,0.00,0.0,WeatherDisplay:10.37,2013-03-09 00:46:00,
2013-03-08 19:51:00,48.0,29.2,30.19,North,359,0.0,0.0,48,0.00,CLR,,0.00,0.0,WeatherDisplay:10.37,2013-03-09 00:51:00,
2013-03-08 19:56:00,47.7,28.9,30.20,North,359,0.0,0.0,48,0.00,CLR,,0.00,0.0,WeatherDisplay:10.37,2013-03-09 00:56:00,
2013-03-08 20:01:00,47.3,29.1,30.20,North,359,0.0,0.0,49,0.00,CLR,,0.00,0.0,WeatherDisplay:10.37,2013-03-09 01:01:00,
2013-03-08 20:06:00,47.0,28.8,30.20,North,359,1.2,1.2,49,0.00,CLR,,0.00,0.0,WeatherDisplay:10.37,2013-03-09 01:06:00,
2013-03-08 20:11:00,46.6,29.9,30.20,North,359,1.2,1.2,52,0.00,CLR,,0.00,0.0,WeatherDisplay:10.37,2013-03-09 01:11:00,
2013-03-08 20:16:00,46.2,30.5,30.20,North,359,0.0,0.0,54,0.00,CLR,,0.00,0.0,WeatherDisplay:10.37,2013-03-09 01:16:00,
2013-03-08 20:21:00,45.9,29.7,30.20,North,359,0.0,0.0,53,0.00,CLR,,0.00,0.0,WeatherDisplay:10.37,2013-03-09 01:21:00,
2013-03-08 20:26:00,45.6,30.3,30.21,North,359,0.0,0.0,55,0.00,CLR,,0.00,0.0,WeatherDisplay:10.37,2013-03-09 01:26:00,
2013-03-08 20:31:00,45.4,30.2,30.21,North,359,0.0,0.0,55,0.00,CLR,,0.00,0.0,WeatherDisplay:10.37,2013-03-09 01:31:00,
2013-03-08 20:36:00,45.1,29.9,30.21,North,359,0.0,0.0,55,0.00,CLR,,0.00,0.0,WeatherDisplay:10.37,2013-03-09 01:36:00,
2013-03-08 20:41:00,44.9,29.2,30.22,North,359,0.0,0.0,54,0.00,CLR,,0.00,0.0,WeatherDisplay:10.37,2013-03-09 01:41:00,
2013-03-08 20:46:00,44.8,29.6,30.22,North,359,0.0,0.0,55,0.00,CLR,,0.00,0.0,WeatherDisplay:10.37,2013-03-09 01:46:00,
2013-03-08 20:51:00,44.6,30.3,30.22,North,359,0.0,0.0,57,0.00,CLR,,0.00,0.0,WeatherDisplay:10.37,2013-03-09 01:51:00,
2013-03-08 20:56:00,44.4,30.5,30.22,North,359,0.0,0.0,58,0.00,CLR,,0.00,0.0,WeatherDisplay:10.37,2013-03-09 01:56:00,
2013-03-08 21:02:00,44.1,30.7,30.23,North,359,0.0,0.0,59,0.00,CLR,,0.00,0.0,WeatherDisplay:10.37,2013-03-09 02:02:00,
2013-03-08 21:07:00,43.8,31.2,30.23,North,359,0.0,0.0,61,0.00,CLR,,0.00,0.0,WeatherDisplay:10.37,2013-03-09 02:07:00,
2013-03-08 21:12:00,43.6,31.4,30.23,North,359,0.0,0.0,62,0.00,CLR,,0.00,0.0,WeatherDisplay:10.37,2013-03-09 02:12:00,
2013-03-08 21:17:00,43.4,31.2,30.23,North,359,0.0,0.0,62,0.00,CLR,,0.00,0.0,WeatherDisplay:10.37,2013-03-09 02:17:00,
2013-03-08 21:22:00,43.2,30.6,30.23,North,359,0.0,0.0,61,0.00,CLR,,0.00,0.0,WeatherDisplay:10.37,2013-03-09 02:22:00,
2013-03-08 21:27:00,43.0,30.9,30.24,North,359,0.0,0.0,62,0.00,CLR,,0.00,0.0,WeatherDisplay:10.37,2013-03-09 02:27:00,
2013-03-08 21:32:00,42.8,31.1,30.24,North,359,0.0,0.0,63,0.00,CLR,,0.00,0.0,WeatherDisplay:10.37,2013-03-09 02:32:00,
2013-03-08 21:37:00,42.6,31.7,30.25,North,359,0.0,0.0,65,0.00,CLR,,0.00,0.0,WeatherDisplay:10.37,2013-03-09 02:37:00,
2013-03-08 21:42:00,42.4,31.8,30.24,North,359,0.0,0.0,66,0.00,CLR,,0.00,0.0,WeatherDisplay:10.37,2013-03-09 02:42:00,
2013-03-08 21:47:00,42.3,32.5,30.24,North,359,0.0,0.0,68,0.00,CLR,,0.00,0.0,WeatherDisplay:10.37,2013-03-09 02:47:00,
2013-03-08 21:52:00,42.2,32.8,30.24,North,359,0.0,0.0,69,0.00,CLR,,0.00,0.0,WeatherDisplay:10.37,2013-03-09 02:52:00,
2013-03-08 21:57:00,42.0,32.9,30.24,North,359,0.0,0.0,70,0.00,CLR,,0.00,0.0,WeatherDisplay:10.37,2013-03-09 02:57:00,
2013-03-08 22:02:00,41.8,32.7,30.24,North,359,0.0,0.0,70,0.00,CLR,,0.00,0.0,WeatherDisplay:10.37,2013-03-09 03:02:00,
2013-03-08 22:07:00,41.6,32.9,30.24,North,359,0.0,0.0,71,0.00,CLR,,0.00,0.0,WeatherDisplay:10.37,2013-03-09 03:07:00,
2013-03-08 22:12:00,41.4,33.4,30.24,North,359,0.0,0.0,73,0.00,CLR,,0.00,0.0,WeatherDisplay:10.37,2013-03-09 03:12:00,
2013-03-08 22:17:00,41.1,33.4,30.25,North,359,0.0,0.0,74,0.00,CLR,,0.00,0.0,WeatherDisplay:10.37,2013-03-09 03:17:00,
2013-03-08 22:22:00,41.0,33.7,30.25,North,359,0.0,0.0,75,0.00,CLR,,0.00,0.0,WeatherDisplay:10.37,2013-03-09 03:22:00,
2013-03-08 22:27:00,40.8,33.2,30.25,North,359,0.0,0.0,74,0.00,CLR,,0.00,0.0,WeatherDisplay:10.37,2013-03-09 03:27:00,
2013-03-08 22:32:00,40.6,33.6,30.25,North,359,0.0,0.0,76,0.00,CLR,,0.00,0.0,WeatherDisplay:10.37,2013-03-09 03:32:00,
2013-03-08 22:37:00,40.5,33.5,30.26,North,359,0.0,0.0,76,0.00,CLR,,0.00,0.0,WeatherDisplay:10.37,2013-03-09 03:37:00,
2013-03-08 22:42:00,40.3,33.7,30.26,North,359,0.0,0.0,77,0.00,CLR,,0.00,0.0,WeatherDisplay:10.37,2013-03-09 03:42:00,
2013-03-08 22:47:00,40.2,33.6,30.26,North,359,0.0,0.0,77,0.00,CLR,,0.00,0.0,WeatherDisplay:10.37,2013-03-09 03:47:00,
2013-03-08 22:52:00,40.0,33.7,30.25,North,359,0.0,0.0,78,0.00,CLR,,0.00,0.0,WeatherDisplay:10.37,2013-03-09 03:52:00,
2013-03-08 22:57:00,39.9,33.9,30.25,North,359,0.0,0.4,79,0.00,CLR,,0.00,0.0,WeatherDisplay:10.37,2013-03-09 03:57:00,
2013-03-08 23:02:00,39.7,33.7,30.24,North,359,0.0,0.0,79,0.00,CLR,,0.00,0.0,WeatherDisplay:10.37,2013-03-09 04:02:00,
2013-03-08 23:07:00,39.7,34.0,30.24,North,359,0.0,0.0,80,0.00,CLR,,0.00,0.0,WeatherDisplay:10.37,2013-03-09 04:07:00,
2013-03-08 23:12:00,39.5,34.5,30.24,North,359,0.0,0.0,82,0.00,CLR,,0.00,0.0,WeatherDisplay:10.37,2013-03-09 04:12:00,
2013-03-08 23:17:00,39.3,34.3,30.24,North,359,0.0,0.0,82,0.00,CLR,,0.00,0.0,WeatherDisplay:10.37,2013-03-09 04:17:00,
2013-03-08 23:22:00,39.2,34.2,30.24,North,359,0.0,0.0,82,0.00,CLR,,0.00,0.0,WeatherDisplay:10.37,2013-03-09 04:22:00,
2013-03-08 23:27:00,39.1,34.1,30.23,North,359,0.0,0.0,82,0.00,CLR,,0.00,0.0,WeatherDisplay:10.37,2013-03-09 04:27:00,
2013-03-08 23:32:00,38.9,34.2,30.23,North,359,0.0,0.0,83,0.00,CLR,,0.00,0.0,WeatherDisplay:10.37,2013-03-09 04:32:00,
2013-03-08 23:37:00,38.8,34.1,30.23,North,359,0.0,0.0,83,0.00,CLR,,0.00,0.0,WeatherDisplay:10.37,2013-03-09 04:37:00,
2013-03-08 23:42:00,38.6,33.9,30.23,North,359,0.0,0.0,83,0.00,CLR,,0.00,0.0,WeatherDisplay:10.37,2013-03-09 04:42:00,
2013-03-08 23:47:00,38.5,33.8,30.23,North,359,0.0,0.0,83,0.00,CLR,,0.00,0.0,WeatherDisplay:10.37,2013-03-09 04:47:00,
2013-03-08 23:52:00,38.4,34.0,30.23,North,359,0.0,0.0,84,0.00,CLR,,0.00,0.0,WeatherDisplay:10.37,2013-03-09 04:52:00,
2013-03-08 23:57:00,38.3,33.9,30.23,North,359,0.0,0.0,84,0.00,CLR,,0.00,0.0,WeatherDisplay:10.37,2013-03-09 04:57:00,